Change the Weather History Date:

Thursday, September 19, 2013

  Actual Average Record
Temperature  
Mean Temperature 40 °F -  
Max Temperature 50 °F 35 °F 57 °F (2002)
Min Temperature 30 °F 21 °F 21 °F (2011)
Degree Days  
Heating Degree Days 25    
Moisture  
Dew Point 20 °F    
Average Humidity 46    
Maximum Humidity 69    
Minimum Humidity 14    
Precipitation  
Precipitation 0.00 in 0.02 in - ()
Sea Level Pressure  
Sea Level Pressure 29.40 in    
Wind  
Wind Speed 10 mph ()    
Max Wind Speed 15 mph    
Max Gust Speed -    
Visibility 6.6 miles    
Events Fog    
Averages and records for this station are not official NWS values.
T = Trace of Precipitation, MM = Missing Value Source: Averaged Metar Reports

Daily Weather History Graph

Daily Weather History Graph

Search for Another Location

Airport or City:

Trip Planner

Search our weather history database for the weather conditions in past years. The results will help you decide how hot, cold, wet, or windy it might be!

Date:

Astronomy

Sep. 19, 2013 Rise Set
Actual Time 6:55 AM WGST 7:35 PM WGST
Civil Twilight 6:00 AM WGST 8:29 PM WGST
Nautical Twilight 4:52 AM WGST 9:37 PM WGST
Astronomical Twilight 3:23 AM WGST 11:03 PM WGST
Moon 6:57 PM WGST (9/19) 7:17 AM WGST (9/19)
Length of Visible Light 14h 28m
Length of Day
12h 40m
Full, 100% of the Moon is Illuminated
Sep 19
Full
Sep 27
Last Quarter
Oct 4
New
Oct 11
First Quarter
Oct 18
Full

Hourly Weather History & Observations

Time (WGST) Temp. Windchill Dew Point Humidity Pressure Visibility Wind Dir Wind Speed Gust Speed Precip Events Conditions
12:20 AM 33.8 °F 25.8 °F 19.4 °F 56% 29.36 in 6.2 mi ENE 10.4 mph - N/A   Unknown
12:50 AM 32.0 °F 23.0 °F 21.2 °F 64% 29.36 in 6.2 mi ENE 11.5 mph - N/A   Unknown
1:00 AM 33 °F - 18 °F 42% 29.39 in 18 mi ENE 10.4 mph - -  
1:20 AM 33.8 °F 25.3 °F 19.4 °F 56% 29.36 in 6.2 mi ENE 11.5 mph - N/A   Unknown
1:50 AM 32.0 °F 22.5 °F 19.4 °F 60% 29.39 in 6.2 mi ENE 12.7 mph - N/A   Unknown
2:20 AM 33.8 °F 24.8 °F 21.2 °F 60% 29.39 in 6.2 mi ENE 12.7 mph - N/A   Unknown
2:50 AM 32.0 °F 22.1 °F 21.2 °F 64% 29.39 in 6.2 mi ENE 13.8 mph - N/A   Unknown
3:20 AM 33.8 °F 24.3 °F 21.2 °F 60% 29.39 in 6.2 mi ENE 13.8 mph - N/A   Unknown
3:50 AM 33.8 °F 25.3 °F 21.2 °F 60% 29.39 in 6.2 mi ENE 11.5 mph - N/A   Unknown
4:00 AM 34 °F - 19 °F 41% 29.42 in 47 mi ENE 12.7 mph - -  
4:20 AM 35.6 °F 27.1 °F 21.2 °F 56% 29.42 in 6.2 mi ENE 12.7 mph - N/A   Unknown
4:50 AM 35.6 °F 28.6 °F 19.4 °F 52% 29.42 in 6.2 mi ENE 9.2 mph - N/A   Unknown
5:20 AM 33.8 °F 25.8 °F 19.4 °F 56% 29.42 in 6.2 mi ENE 10.4 mph - N/A   Unknown
5:50 AM 35.6 °F 27.1 °F 19.4 °F 52% 29.42 in 6.2 mi ENE 12.7 mph - N/A   Unknown
6:20 AM 35.6 °F 27.1 °F 19.4 °F 52% 29.42 in 6.2 mi ENE 12.7 mph - N/A   Unknown
6:50 AM 35.6 °F 27.5 °F 17.6 °F 48% 29.42 in 6.2 mi ENE 11.5 mph - N/A   Unknown
7:00 AM 32 °F - 18 °F 43% 29.44 in 15 mi ENE 10.4 mph - -  
7:20 AM 32.0 °F 21.6 °F 19.4 °F 60% 29.42 in 6.2 mi ENE 15.0 mph - N/A   Unknown
7:50 AM 33.8 °F 24.8 °F 19.4 °F 56% 29.42 in 6.2 mi ENE 12.7 mph - N/A   Unknown
8:20 AM 35.6 °F 26.6 °F 19.4 °F 52% 29.42 in 6.2 mi East 13.8 mph - N/A   Unknown
8:50 AM 37.4 °F 30.3 °F 19.4 °F 48% 29.42 in 6.2 mi ENE 10.4 mph - N/A   Unknown
9:20 AM 39.2 °F 32.5 °F 19.4 °F 45% 29.42 in 3.1 mi ENE 10.4 mph - N/A Fog Patches of Fog
9:50 AM 42.8 °F 37.5 °F 21.2 °F 42% 29.42 in 6.2 mi ENE 9.2 mph - N/A   Mostly Cloudy
10:00 AM 43 °F - 17 °F 23% 29.43 in 7 mi ENE 10.4 mph - - Fog Light Fog
10:20 AM 42.8 °F 37.0 °F 21.2 °F 42% 29.42 in 6.2 mi East 10.4 mph - N/A   Scattered Clouds
10:50 AM 44.6 °F 38.4 °F 21.2 °F 39% 29.42 in 6.2 mi East 12.7 mph - N/A   Partly Cloudy
11:20 AM 46.4 °F 40.7 °F 19.4 °F 34% 29.42 in 6.2 mi East 12.7 mph - N/A   Scattered Clouds
11:50 AM 44.6 °F 38.4 °F 19.4 °F 37% 29.42 in 6.2 mi East 12.7 mph - N/A   Unknown
12:20 PM 48.2 °F - 17.6 °F 30% 29.39 in 6.2 mi East 11.5 mph - N/A   Unknown
12:50 PM 48.2 °F - 19.4 °F 32% 29.39 in 6.2 mi East 12.7 mph - N/A   Unknown
1:00 PM 49 °F - 15 °F 14% 29.41 in 25 mi East 12.7 mph - -  
1:20 PM 50.0 °F - 19.4 °F 30% 29.39 in 6.2 mi East 11.5 mph - N/A   Unknown
1:50 PM 50.0 °F - 21.2 °F 32% 29.39 in 6.2 mi East 10.4 mph - N/A   Unknown
2:20 PM 50.0 °F - 19.4 °F 30% 29.39 in 6.2 mi East 12.7 mph - N/A   Unknown
2:50 PM 50.0 °F - 19.4 °F 30% 29.36 in 6.2 mi East 11.5 mph - N/A   Unknown
3:20 PM 50.0 °F - 21.2 °F 32% 29.36 in 6.2 mi East 10.4 mph - N/A   Unknown
3:50 PM 50.0 °F - 19.4 °F 30% 29.39 in 6.2 mi East 8.1 mph - N/A   Unknown
4:00 PM 50 °F - 16 °F 14% 29.39 in 37 mi East 8.1 mph - -   Clear
4:20 PM 50.0 °F - 23.0 °F 35% 29.39 in 6.2 mi East 9.2 mph - N/A   Unknown
4:50 PM 50.0 °F - 21.2 °F 32% 29.39 in 6.2 mi East 6.9 mph - N/A   Unknown
5:20 PM 48.2 °F - 23.0 °F 37% 29.39 in 6.2 mi East 8.1 mph - N/A   Unknown
5:50 PM 46.4 °F 41.9 °F 24.8 °F 43% 29.39 in 6.2 mi ENE 9.2 mph - N/A   Unknown
6:20 PM 44.6 °F 39.7 °F 23.0 °F 43% 29.39 in 6.2 mi ENE 9.2 mph - N/A   Unknown
6:50 PM 42.8 °F 38.0 °F 23.0 °F 46% 29.39 in 6.2 mi East 8.1 mph - N/A   Unknown
7:00 PM 42 °F - 20 °F 28% 29.41 in 31 mi East 5.8 mph - -  
7:20 PM 42.8 °F 38.0 °F 23.0 °F 46% 29.39 in 6.2 mi East 8.1 mph - N/A   Unknown
7:50 PM 39.2 °F 34.2 °F 23.0 °F 52% 29.39 in 6.2 mi East 6.9 mph - N/A   Unknown
8:20 PM 39.2 °F 34.2 °F 23.0 °F 52% 29.39 in 6.2 mi East 6.9 mph - N/A   Unknown
8:50 PM 37.4 °F 30.8 °F 23.0 °F 56% 29.42 in 6.2 mi East 9.2 mph - N/A   Unknown
9:20 PM 37.4 °F 33.8 °F 23.0 °F 56% 29.42 in 6.2 mi NNE 4.6 mph - N/A   Unknown
9:50 PM 33.8 °F 29.6 °F 23.0 °F 65% 29.42 in 6.2 mi ENE 4.6 mph - N/A   Unknown
10:00 PM 35 °F - 21 °F 44% 29.44 in 47 mi ENE 3.5 mph - -   Clear
10:20 PM 35.6 °F 31.7 °F 21.2 °F 56% 29.42 in 6.2 mi ENE 4.6 mph - N/A   Unknown
10:50 PM 33.8 °F - 23.0 °F 65% 29.44 in 6.2 mi Calm Calm - N/A   Unknown
11:20 PM 30.2 °F 24.3 °F 21.2 °F 69% 29.44 in 6.2 mi ENE 5.8 mph - N/A   Partly Cloudy
11:50 PM 32.0 °F 25.6 °F 23.0 °F 69% 29.44 in 6.2 mi ENE 6.9 mph - N/A   Mostly Cloudy